N6YV Weather Reports


Display with metric or nautical units.
time (UTC)temp
F
wind
direction
speed
MPH
gust
MPH
rain 1hr
in
rain 24hr
in
rain mn
in
humidity
%
barometer
mb
20260904154548 58 219 4.0 0.0 0.00 0.00 0.00 62 1001.6
20260904153047 58 239 6.0 0.0 0.00 0.00 0.00 62 1001.6
20260904151548 58 205 7.0 0.0 0.00 0.00 0.00 62 1001.6
20260904150105 58 199 7.0 0.0 0.00 0.00 0.00 60 1001.5
20260904144542 58 221 5.0 0.0 0.00 0.00 0.00 61 1001.3
20260904143041 57 242 4.0 0.0 0.00 0.00 0.00 62 1001.2
20260904141545 57 215 5.0 0.0 0.00 0.00 0.00 63 1001.1
20260904140041 56 226 6.0 0.0 0.00 0.00 0.00 64 1000.9
20260904134546 57 225 6.0 0.0 0.00 0.00 0.00 63 1000.9
20260904133033 58 204 7.0 0.0 0.00 0.00 0.00 56 1000.9
20260904131532 58 202 7.0 0.0 0.00 0.00 0.00 57 1000.7
20260904130035 58 223 8.0 0.0 0.00 0.00 0.00 56 1000.6
20260904124530 58 253 7.0 0.0 0.00 0.00 0.00 56 1000.5
20260904123029 58 206 7.0 0.0 0.00 0.00 0.00 56 1000.6
20260904121528 58 199 7.0 0.0 0.00 0.00 0.00 55 1000.6
20260904120027 59 209 6.0 0.0 0.00 0.00 0.00 54 1000.7
20260904114532 59 213 6.0 0.0 0.00 0.00 0.00 54 1000.4
20260904113025 59 215 7.0 0.0 0.00 0.00 0.00 53 1000.4
20260904111528 59 216 7.0 0.0 0.00 0.00 0.00 53 1000.4
20260904110023 59 207 6.0 0.0 0.00 0.00 0.00 53 1000.4
20260904104522 59 199 9.0 0.0 0.00 0.00 0.00 52 1000.3
20260904103021 59 190 8.0 0.0 0.00 0.00 0.00 52 999.9
20260904101520 59 206 8.0 0.0 0.00 0.00 0.00 52 1000.1
20260904100020 59 218 9.0 0.0 0.00 0.00 0.00 52 1000.1
20260904094532 59 220 9.0 0.0 0.00 0.00 0.00 51 1000.1
20260904093016 59 213 10.0 0.0 0.00 0.00 0.00 52 1000.3
20260904091516 59 206 12.0 0.0 0.00 0.00 0.00 52 1000.3
20260904090014 59 209 10.0 0.0 0.00 0.00 0.00 52 1000.5
20260904084514 59 181 9.0 0.0 0.00 0.00 0.00 52 1000.7
20260904083013 59 182 9.0 0.0 0.00 0.00 0.00 51 1000.7
20260904081509 59 192 9.0 0.0 0.00 0.00 0.00 51 1000.8
20260904080009 59 201 6.0 0.0 0.00 0.00 0.00 51 1001.0
20260904074502 59 213 7.0 0.0 0.00 0.00 0.00 50 1001.1
20260904073003 59 218 7.0 0.0 0.00 0.00 0.00 49 1001.2
20260904071559 59 203 7.0 0.0 0.00 0.00 0.00 47 1001.1
20260904070100 59 192 7.0 0.0 0.00 0.00 0.00 48 1001.1
20260904064556 58 203 6.0 0.0 0.00 0.00 0.00 52 1000.9
20260904063107 59 156 7.0 0.0 0.00 0.00 0.00 51 1001.0
20260904061556 59 209 6.0 0.0 0.00 0.00 0.00 51 1000.9
20260904060056 59 202 7.0 0.0 0.00 0.00 0.00 50 1000.9
20260904054555 59 210 7.0 0.0 0.00 0.00 0.00 51 1000.8
20260904053054 59 219 9.0 0.0 0.00 0.00 0.00 52 1000.9
20260904051602 59 220 9.0 0.0 0.00 0.00 0.00 53 1001.1
20260904050056 59 167 10.0 0.0 0.00 0.00 0.00 53 1001.2
20260904044553 58 193 11.0 0.0 0.00 0.00 0.00 55 1000.9
20260904043054 59 185 9.0 0.0 0.00 0.00 0.00 54 1001.2
20260904041551 60 209 11.0 0.0 0.00 0.00 0.00 51 1001.1
20260904034554 60 227 11.0 0.0 0.00 0.00 0.00 50 1001.3
20260904033050 60 199 11.0 0.0 0.00 0.00 0.00 50 1001.0
20260904031550 60 248 11.0 0.0 0.00 0.00 0.00 49 1000.8
20260904030055 60 239 12.0 0.0 0.00 0.00 0.00 49 1001.1
20260904024553 60 219 11.0 0.0 0.00 0.00 0.00 51 1000.7
20260904023057 60 222 11.0 0.0 0.00 0.00 0.00 53 1000.6
20260904021547 59 219 10.0 0.0 0.00 0.00 0.00 55 1000.9
20260904020051 59 191 9.0 0.0 0.00 0.00 0.00 58 1000.9
20260904014557 60 189 10.0 0.0 0.00 0.00 0.00 54 1000.9
20260904013047 61 232 11.0 0.0 0.00 0.00 0.00 50 1000.9
20260904011542 62 205 10.0 0.0 0.00 0.00 0.00 48 1000.9
20260904010049 62 235 14.0 0.0 0.00 0.00 0.00 47 1000.8
20260904004544 62 211 11.0 0.0 0.00 0.00 0.00 47 1000.9
20260904003040 63 178 9.0 0.0 0.00 0.00 0.00 48 1001.0
20260904001541 63 221 12.0 0.0 0.00 0.00 0.00 47 1001.0
20260904000040 63 241 14.0 0.0 0.00 0.00 0.00 46 1001.1
20260903234539 63 188 14.0 0.0 0.00 0.00 0.00 48 1000.9
20260903233038 63 223 12.0 0.0 0.00 0.00 0.00 48 1000.9
20260903231542 63 211 15.0 0.0 0.00 0.00 0.00 47 1001.1
20260903230041 63 217 13.0 0.0 0.00 0.00 0.00 46 1001.7
20260903224551 63 230 15.0 0.0 0.00 0.00 0.00 45 1001.7
20260903223036 64 257 17.0 0.0 0.00 0.00 0.00 42 1001.7
20260903221536 67 247 16.0 0.0 0.00 0.00 0.00 38 1001.4
20260903220043 67 252 18.0 0.0 0.00 0.00 0.00 38 1001.5
20260903214539 67 241 18.0 0.0 0.00 0.00 0.00 37 1001.4
20260903213037 68 226 18.0 0.0 0.00 0.00 0.00 37 1001.1
20260903211538 68 239 17.0 0.0 0.00 0.00 0.00 37 1001.0
20260903210035 68 229 20.0 0.0 0.00 0.00 0.00 36 1001.2
20260903204533 68 231 16.0 0.0 0.00 0.00 0.00 35 1001.5
20260903203029 68 235 14.0 0.0 0.00 0.00 0.00 34 1001.8
20260903201527 67 196 15.0 0.0 0.00 0.00 0.00 35 1001.9
20260903200030 67 242 13.0 0.0 0.00 0.00 0.00 35 1002.2
20260903194525 66 217 13.0 0.0 0.00 0.00 0.00 35 1002.5
20260903193022 68 237 12.0 0.0 0.00 0.00 0.00 32 1002.8
20260903191521 69 192 12.0 0.0 0.00 0.00 0.00 32 1002.9
20260903190019 69 184 12.0 0.0 0.00 0.00 0.00 32 1003.2
20260903184518 69 214 12.0 0.0 0.00 0.00 0.00 32 1003.3
20260903183017 68 207 13.0 0.0 0.00 0.00 0.00 32 1003.6
20260903181516 69 200 11.0 0.0 0.00 0.00 0.00 31 1003.5
20260903180011 66 236 9.0 0.0 0.00 0.00 0.00 34 1003.8
20260903174510 64 190 9.0 0.0 0.00 0.00 0.00 36 1003.7
20260903173009 63 217 10.0 0.0 0.00 0.00 0.00 36 1003.7
20260903171508 63 191 7.0 0.0 0.00 0.00 0.00 36 1003.8
20260903170007 64 187 9.0 0.0 0.00 0.00 0.00 36 1003.8
20260903164506 64 267 3.0 0.0 0.00 0.00 0.00 33 1003.8
20260903163004 65 225 8.0 0.0 0.00 0.00 0.00 30 1004.0
20260903161600 63 137 5.0 0.0 0.00 0.00 0.00 30 1004.4
20260903160121 62 203 6.0 0.0 0.00 0.00 0.00 31 1004.6